Buenos Aires, Argentina

3:28 AM ART on February 09, 2016 (GMT -0300)
Jorge Newbery Aeroparque

Weather History for SABE - December, 2013

Change the Weather History Date:

Sunday, December 29, 2013

  Actual Average Record
Temperature  
Mean Temperature 90 °F -  
Max Temperature 99 °F 83 °F 99 °F (2013)
Min Temperature 81 °F 69 °F 60 °F (2003)
Cooling Degree Days 25    
Growing Degree Days 40 (Base 50)    
Moisture  
Dew Point 69 °F    
Average Humidity 50    
Maximum Humidity 74    
Minimum Humidity 21    
Precipitation  
Precipitation 0.00 in 0.13 in - ()
Sea Level Pressure  
Sea Level Pressure 29.58 in    
Wind  
Wind Speed 5 mph ()    
Max Wind Speed 14 mph    
Max Gust Speed -    
Visibility 6.0 miles    
Events      
Averages and records for this station are not official NWS values.
T = Trace of Precipitation, MM = Missing Value Source: Averaged Metar Reports

Daily Weather History Graph

Daily Weather History Graph

Search for Another Location

Airport or City:

Trip Planner

Search our weather history database for the weather conditions in past years. The results will help you decide how hot, cold, wet, or windy it might be!

Date:

Astronomy

Dec. 29, 2013 Rise Set
Actual Time 5:42 AM ART 8:09 PM ART
Civil Twilight 5:12 AM ART 8:38 PM ART
Nautical Twilight 4:36 AM ART 9:14 PM ART
Astronomical Twilight 3:56 AM ART 9:54 PM ART
Moon 2:58 AM ART (12/29) 5:12 PM ART (12/29)
Length of Visible Light 15h 25m
Length of Day
14h 26m
Waning Crescent, 11% of the Moon is Illuminated
Dec 29
Waning Crescent
Jan 1
New
Jan 8
First Quarter
Jan 16
Full
Jan 24
Last Quarter

Hourly Weather History & Observations

Time (ART) Temp. Heat Index Dew Point Humidity Pressure Visibility Wind Dir Wind Speed Gust Speed Precip Events Conditions
12:00 AM 86 °F - 72 °F 56% 29.66 in 6 mi South 3.5 mph - -   Clear
12:00 AM 86.0 °F 91.8 °F 71.6 °F 62% 29.65 in - South 3.5 mph - N/A   Clear
1:00 AM 84.2 °F 89.6 °F 71.6 °F 66% 29.62 in - NNE 3.5 mph - N/A   Clear
2:00 AM 84.2 °F 89.6 °F 71.6 °F 66% 29.62 in - North 2.3 mph - N/A   Clear
3:00 AM 83 °F - 73 °F 64% 29.63 in 6 mi WNW 3.5 mph - -   Clear
3:00 AM 84.2 °F 90.9 °F 73.4 °F 70% 29.62 in - WNW 3.5 mph - N/A   Clear
4:00 AM 84.2 °F 90.9 °F 73.4 °F 70% 29.59 in - WNW 3.5 mph - N/A   Clear
5:00 AM 82.4 °F 88.2 °F 73.4 °F 74% 29.59 in - Calm Calm - N/A   Clear
6:00 AM 83 °F - 72 °F 62% 29.63 in 6 mi West 2.3 mph - -   Clear
6:00 AM 82.4 °F 87.2 °F 71.6 °F 70% 29.62 in - West 2.3 mph - N/A   Clear
7:00 AM 82.4 °F 87.2 °F 71.6 °F 70% 29.62 in - NW 6.9 mph - N/A   Clear
8:00 AM 84.2 °F 90.9 °F 73.4 °F 70% 29.62 in - West 3.5 mph - N/A   Clear
9:00 AM 86 °F - 70 °F 50% 29.65 in 6 mi NW 4.6 mph - -   Overcast
9:00 AM 86.0 °F 90.4 °F 69.8 °F 58% 29.62 in - NW 4.6 mph - N/A   Clear
10:00 AM 86.0 °F 90.4 °F 69.8 °F 58% 29.62 in - West 6.9 mph - N/A   Clear
11:00 AM 89.6 °F 94.7 °F 69.8 °F 52% 29.62 in - WSW 6.9 mph - N/A   Clear
12:00 PM 91 °F - 70 °F 40% 29.63 in 6 mi SW 4.6 mph - -   Overcast
12:00 PM 91.4 °F 96.8 °F 69.8 °F 49% 29.62 in - SW 4.6 mph - N/A   Clear
1:00 PM 93.2 °F 98.8 °F 69.8 °F 46% 29.59 in - NW 9.2 mph - N/A   Clear
2:00 PM 93.2 °F 98.8 °F 69.8 °F 46% 29.56 in - West 9.2 mph - N/A   Clear
3:00 PM 97 °F - 67 °F 29% 29.56 in 6 mi West 13.8 mph - -   Clear
3:00 PM 96.8 °F 101.8 °F 68.0 °F 39% 29.53 in - West 13.8 mph - N/A   Clear
4:00 PM 98.6 °F 100.0 °F 62.6 °F 30% 29.53 in - WSW 11.5 mph - N/A   Clear
5:00 PM 98.6 °F 100.0 °F 62.6 °F 30% 29.50 in - West 11.5 mph - N/A   Clear
6:00 PM 99 °F - 63 °F 21% 29.49 in 6 mi West 11.5 mph - -  
6:00 PM 89.6 °F 90.1 °F 62.6 °F 40% 29.74 in 6.2 mi SE 10.4 mph - N/A   Mostly Cloudy
7:00 PM 98.6 °F 101.0 °F 64.4 °F 32% 29.47 in - WSW 9.2 mph - N/A   Clear
8:00 PM 96.8 °F 99.0 °F 64.4 °F 34% 29.47 in - WSW 6.9 mph - N/A   Clear
9:00 PM 94 °F - 66 °F 30% 29.50 in 6 mi West 5.8 mph - -   Clear
9:00 PM 93.2 °F 96.2 °F 66.2 °F 41% 29.47 in - West 5.8 mph - N/A   Clear
10:00 PM 93.2 °F 96.2 °F 66.2 °F 41% 29.50 in - West 3.5 mph - N/A   Clear
11:00 PM 91.4 °F 94.0 °F 66.2 °F 43% 29.53 in - NW 3.5 mph - N/A   Clear